Location: Eschentzwiller
(47.7125°N, 7.3981°E)
Time: 03:50:27
(UTC+00:00)

CZ-4B R/B - Pass Details

Date: 27 October 2020
Orbit: 808 x 882 km, 99.1° (Epoch: 01 December)

Event Time Altitude Azimuth Distance (km) Brightness Sun altitude
Rises 17:08:24 0° 176° (S) 3,455 6.5 -8.7°
Reaches altitude 10° 17:10:50 10° 181° (S) 2,514 5.8 -9.1°
Maximum altitude 17:16:19 56° 259° (WSW) 1,024 4.1 -10.0°
Drops below altitude 10° 17:21:45 10° 337° (NNW) 2,488 5.8 -10.9°
Sets 17:24:10 0° 342° (NNW) 3,416 6.5 -11.3°
